Wind_Speed
11 12 12 13 14 14 16 17 19 20 21 21 21 21 21 20 20 20 21 19 20 21 22 19 19 17 17 18 17 16 17 16 16 15 15 17 15 17 16 14 14 12 12
14 15 14 15 16 17 18 20 21 23 25 26 27 27 27 25 24 23 22 22 22 24 24 25 24 22 19 19 19 17 17 18 17 17 16 17 16 17 18 17 15 15 14
12 14 15 17 18 18 20 22 24 25 27 29 31 33 31 29 28 27 27 27 27 27 27 29 30 28 24 22 21 19 18 17 18 17 17 17 16 17 17 19 18 18 14
8 8 11 12 13 15 16 17 20 23 26 26 28 29 32 32 31 32 32 31 32 32 33 31 32 33 31 27 24 22 20 19 19 19 19 18 18 17 18 19 19 18 16
11 11 11 11 11 10 11 14 15 16 20 22 23 24 25 26 28 29 32 31 31 34 38 37 36 37 36 34 28 25 23 22 20 20 20 20 18 18 18 20 20 18 16
12 11 12 13 14 15 16 15 14 15 17 20 22 24 21 20 23 26 29 30 33 34 34 39 40 39 41 39 36 29 26 24 22 22 23 21 19 20 20 20 19 19 19
13 13 13 14 13 13 12 12 13 13 16 21 17 23 18 22 18 21 25 29 31 33 36 35 39 41 43 43 43 37 31 28 26 26 25 24 23 23 22 21 21 21 20
13 15 16 17 15 12 11 12 12 13 12 17 11 16 4 15 5 24 24 21 25 29 33 35 36 38 38 38 45 44 37 33 31 29 28 28 26 25 24 23 23 23 23
11 11 12 13 13 13 12 12 14 15 11 14 13 5 3 3 16 5 21 22 23 25 29 34 36 40 41 41 42 44 45 41 38 34 34 33 30 28 26 25 24 23 23
12 11 12 13 13 12 13 14 14 13 13 13 12 5 10 9 3 6 2 20 19 27 27 30 35 37 39 39 42 42 45 48 46 40 39 39 34 31 30 29 28 26 26
9 10 11 12 12 9 10 11 13 14 14 13 11 10 8 11 10 3 12 7 13 20 29 30 31 30 35 37 36 38 43 46 50 47 44 41 38 37 34 32 31 29 28
6 5 5 4 6 8 10 11 11 12 13 14 15 14 15 10 10 10 5 11 13 14 16 31 32 30 32 36 35 33 39 42 45 50 49 43 43 42 39 37 35 33 31
2 5 7 8 12 12 11 12 11 12 13 15 16 18 17 20 20 16 15 11 8 17 12 13 21 26 26 31 34 34 28 38 40 46 54 48 48 48 45 43 40 36 36
6 9 11 13 15 16 17 17 18 18 19 19 20 19 18 18 19 21 16 11 7 4 16 15 12 22 18 21 25 29 33 29 29 36 45 53 53 51 50 49 44 40 40
9 10 12 14 16 18 20 22 24 25 26 27 26 24 20 21 21 22 22 23 11 7 7 18 12 16 23 29 29 26 26 34 31 35 32 45 53 52 55 54 48 42 42
11 13 14 16 17 18 19 20 22 24 27 29 30 28 26 27 24 23 22 20 20 17 9 16 21 24 25 26 28 29 28 26 30 37 37 39 38 55 54 57 53 46 46
11 13 14 15 15 17 19 20 22 24 25 27 29 28 30 29 26 25 24 21 20 16 12 26 20 22 25 27 25 24 30 28 27 29 29 40 39 49 50 58 56 53 50
15 15 14 16 19 20 20 21 24 25 25 26 27 25 26 28 29 28 28 27 24 20 14 21 21 21 23 25 24 28 29 30 29 28 28 28 34 39 52 56 57 57 52
16 13 17 21 20 20 20 20 20 22 23 22 21 21 21 21 25 26 27 24 21 19 20 23 22 21 22 20 25 25 26 29 30 30 30 31 33 36 44 53 56 58 55
16 17 17 18 18 19 19 19 21 23 23 24 25 25 26 25 22 22 23 19 19 20 20 23 23 21 18 16 20 23 28 24 29 28 28 29 32 34 42 46 58 63 58
14 15 16 15 15 18 20 20 20 23 26 31 31 30 30 32 32 31 24 22 20 20 20 20 23 20 14 11 14 17 23 28 29 28 29 26 27 32 36 46 53 63 65
13 13 14 13 17 20 20 19 20 24 25 27 30 31 33 34 32 27 23 22 22 23 23 22 22 19 17 16 18 19 20 16 7 14 15 24 25 30 29 38 48 58 65
12 11 11 16 18 19 20 24 26 25 27 27 29 31 33 29 30 30 31 31 27 24 26 29 25 23 19 18 18 18 19 18 21 22 17 5 9 18 25 35 44 60 67
11 11 16 17 19 22 23 26 24 25 24 23 25 27 30 32 31 31 32 31 29 29 26 27 28 29 27 25 26 23 22 22 18 10 10 3 6 10 13 27 45 62 68
16 17 18 19 21 22 25 25 24 25 24 25 25 26 27 29 30 30 30 28 28 28 26 23 23 21 23 26 21 23 16 11 2 2 1 5 6 23 26 25 30 35 58
16 18 16 19 20 21 24 25 25 26 24 26 24 24 26 28 29 30 31 27 22 23 24 19 15 19 19 21 21 21 19 11 6 3 12 7 18 15 7 19 29 33 40
Wind_Direction
269 272 276 278 278 276 275 279 281 282 282 284 285 286 288 289 289 286 277 269 260 256 255 244 247 250 250 247 247 239 235 234 233 231 224 220 216 213 210 210 210 207 205
278 277 283 289 288 288 288 285 287 286 285 284 285 285 285 285 285 282 279 268 263 257 251 248 241 242 240 239 248 242 232 228 227 229 228 225 220 219 211 212 214 214 211
298 293 294 293 296 296 295 294 291 290 285 285 282 285 286 287 286 283 280 276 266 259 257 251 247 242 238 232 228 237 230 224 222 222 223 222 222 219 217 213 215 218 211
9 346 326 320 321 318 317 310 309 302 302 300 298 298 291 288 288 288 285 277 271 264 259 255 249 247 246 237 230 226 225 225 220 223 221 217 220 217 212 210 212 214 208
49 42 33 23 14 6 2 355 346 338 326 317 311 306 306 296 299 296 289 284 282 274 264 260 255 247 244 244 236 229 224 221 222 219 221 223 216 214 211 208 212 203 197
50 39 33 22 11 5 7 6 4 354 341 333 326 323 317 308 301 290 289 288 285 279 272 264 260 255 248 243 240 231 228 224 221 220 218 218 219 216 210 207 206 200 194
45 34 26 20 15 11 6 0 358 353 352 350 335 329 311 300 305 297 287 288 284 284 281 275 266 262 254 245 241 233 225 227 221 221 220 215 214 216 212 209 202 199 196
22 15 8 9 6 2 2 3 9 1 346 354 338 321 332 311 315 325 314 302 292 288 284 283 271 264 250 251 239 235 225 224 225 222 219 215 211 210 209 208 204 201 194
21 24 22 19 13 10 13 9 354 349 334 335 336 309 333 297 322 333 317 310 316 305 294 283 279 271 259 253 249 239 236 229 222 221 217 215 210 206 204 205 204 203 196
36 30 24 17 11 4 358 3 358 347 331 318 324 278 283 293 307 316 16 315 327 324 316 297 282 273 265 248 246 244 241 235 227 220 222 213 208 207 203 204 203 202 198
25 10 6 1 354 5 13 1 353 349 345 329 311 300 274 272 286 288 305 294 321 324 317 308 297 284 271 261 248 246 244 239 233 228 222 212 208 207 204 202 201 201 198
3 353 353 3 357 342 337 337 339 340 334 326 323 300 279 270 265 254 254 295 291 287 287 305 306 299 284 268 259 252 249 245 241 232 226 220 213 207 204 201 201 200 199
315 334 331 323 333 323 312 311 306 313 311 311 313 307 301 289 279 260 259 274 293 309 317 316 296 303 305 279 263 258 261 254 245 236 228 223 219 212 207 201 200 197 200
319 321 313 307 310 306 300 299 300 300 303 302 293 291 291 292 282 273 260 272 294 297 314 297 319 303 329 322 296 278 266 259 262 254 244 231 223 216 209 203 202 199 201
333 327 319 314 311 309 309 307 303 299 297 295 290 288 278 287 283 279 275 277 258 280 285 294 287 294 302 310 316 318 291 266 272 258 256 248 232 221 209 208 204 202 201
330 324 321 322 322 321 319 314 308 302 298 299 297 289 281 280 282 281 278 274 271 272 286 306 291 294 298 301 302 306 311 302 282 261 254 254 253 230 222 209 205 202 201
354 352 350 347 340 335 333 328 321 318 313 308 303 297 286 281 278 280 277 265 266 270 284 292 293 294 296 301 305 309 312 307 295 283 274 260 254 244 235 209 207 203 201
342 338 333 332 330 328 324 323 320 316 313 308 304 303 293 290 289 294 290 274 272 276 266 281 290 294 294 298 304 309 313 309 301 297 285 273 261 254 233 223 210 204 199
336 337 332 336 334 331 327 321 318 320 316 313 310 305 299 305 305 308 304 291 277 278 274 267 284 288 282 284 298 308 312 303 296 297 293 279 266 259 250 230 217 208 197
338 337 339 340 338 334 328 329 325 319 315 316 315 314 313 312 313 312 305 295 286 284 276 272 279 275 270 283 295 307 307 301 295 300 293 278 275 260 254 239 215 203 195
344 345 343 340 339 338 337 331 325 324 319 315 312 310 311 310 307 302 297 289 288 291 279 270 279 278 262 273 272 293 287 294 295 294 290 285 268 255 243 241 219 203 193
343 342 341 340 343 345 343 338 330 322 319 316 316 313 313 314 308 307 297 288 281 281 275 270 267 265 274 267 267 268 272 285 296 304 288 280 254 246 242 224 209 195 182
340 339 352 352 347 339 339 334 330 322 314 308 308 309 311 308 306 304 303 298 289 280 273 269 268 267 272 267 271 270 265 262 276 288 269 240 249 224 222 218 204 187 184
344 335 342 342 338 336 333 335 335 328 319 311 310 309 305 307 306 305 302 296 290 286 279 272 274 281 279 285 287 280 277 280 272 245 205 80 65 70 174 191 192 175 172
343 344 337 332 333 330 332 331 332 326 319 314 314 314 307 303 304 310 300 286 283 285 285 273 277 277 281 285 279 288 267 238 203 35 64 110 92 80 82 110 143 150 149
338 337 328 326 326 328 337 333 332 326 320 316 312 309 307 312 309 312 303 291 283 280 284 285 280 285 283 280 281 272 257 215 145 112 156 104 131 106 53 81 118 131 130
Height
825 826 827 828 828 829 829 829 829 829 829 829 828 828 828 827 826 825 825 825 826 827 828 829 832 832 834 835 832 832 832 832 833 834 834 834 835 837 839 841 842 844 844
824 825 826 827 827 828 828 828 827 827 826 826 825 824 823 823 822 820 820 820 820 820 820 822 824 826 826 827 830 829 828 829 830 830 832 832 833 835 836 838 840 841 843
822 823 824 825 825 826 825 825 824 823 822 821 819 818 818 818 818 816 816 816 816 815 815 817 817 818 820 820 820 824 826 824 825 827 828 829 831 831 833 835 837 839 840
821 821 822 822 822 822 822 822 821 820 818 817 815 814 813 812 812 811 810 809 809 810 810 810 812 814 814 815 816 816 819 821 821 824 824 825 827 828 830 832 833 835 839
821 821 822 822 822 821 821 820 820 819 817 815 813 811 810 808 807 805 803 803 803 803 803 804 805 806 807 809 812 813 813 815 817 819 822 822 822 824 827 828 831 832 836
822 823 822 822 822 821 821 821 820 819 817 814 811 808 806 804 803 800 799 797 796 796 795 796 798 799 802 803 803 807 810 810 811 814 816 818 819 821 823 825 828 830 832
821 821 822 822 822 821 820 819 818 816 815 813 809 804 800 797 798 797 797 795 793 791 792 792 791 791 792 794 797 796 800 804 804 807 810 811 813 817 819 822 824 826 829
820 820 820 819 818 817 817 816 817 816 814 812 810 806 800 795 792 794 792 791 789 788 786 785 785 785 785 787 788 789 789 794 798 799 803 804 807 811 814 818 821 823 824
819 819 819 819 819 818 818 817 817 816 813 812 810 810 806 801 795 789 790 790 789 786 784 782 779 779 778 778 778 782 783 783 788 791 793 796 800 804 808 812 816 820 822
820 820 820 819 819 818 818 817 816 814 812 810 808 807 806 804 798 788 786 787 787 785 781 778 775 773 772 771 771 772 773 774 776 781 785 787 789 797 800 804 810 814 818
818 818 818 817 816 815 814 812 811 811 810 808 806 805 803 802 800 797 782 780 780 782 782 778 771 768 767 765 762 763 767 768 768 772 774 777 778 787 792 797 802 808 812
815 815 813 813 813 811 810 809 808 807 806 805 804 803 802 800 796 794 788 776 771 765 766 773 772 767 762 759 757 756 759 761 760 763 766 766 771 777 783 788 794 799 805
812 813 813 812 811 810 809 807 805 804 802 801 800 797 796 794 792 790 787 781 774 766 763 755 767 765 759 755 750 751 750 753 752 754 757 759 763 768 773 777 782 788 796
811 810 810 810 808 807 805 804 802 800 798 796 794 792 790 788 787 785 783 779 773 768 764 762 750 761 756 753 750 746 744 747 747 748 750 752 755 758 763 770 774 779 788
807 806 804 803 803 801 800 799 797 795 793 790 786 784 783 780 779 778 776 775 773 767 762 752 751 752 751 750 749 746 741 739 739 743 744 746 746 750 753 759 764 771 780
803 802 800 799 798 797 796 793 792 789 786 783 781 780 777 775 773 771 769 768 768 766 758 755 752 748 746 744 744 742 739 737 737 734 734 737 739 740 746 748 754 763 773
800 799 798 797 796 794 791 789 786 783 780 777 775 772 769 769 767 764 763 762 761 761 759 749 748 744 742 740 738 738 736 734 733 731 731 731 730 732 740 737 743 752 762
799 798 796 794 791 789 787 784 781 779 776 772 769 767 765 764 762 761 759 757 755 755 754 746 744 740 737 738 734 731 729 728 726 725 724 723 725 728 731 734 735 743 754
797 795 792 790 787 785 783 781 778 775 772 769 766 763 760 759 756 755 754 752 751 749 748 742 736 736 735 733 730 725 725 722 721 721 720 719 720 723 724 726 730 737 743
793 790 788 786 784 783 781 779 777 774 770 767 764 761 758 756 753 751 750 748 745 743 742 738 733 732 729 726 725 720 714 716 717 716 714 713 713 715 717 720 722 723 735
789 786 785 784 783 781 778 776 773 771 766 761 759 756 753 751 748 745 745 742 740 738 737 732 728 726 724 723 722 719 717 713 709 709 706 706 708 708 709 713 715 717 724
786 784 783 782 780 777 775 772 770 765 762 758 753 751 748 744 741 739 737 735 734 733 731 728 722 719 719 719 718 718 716 711 708 706 701 701 703 701 701 705 710 714 718
783 781 779 777 775 775 774 770 767 763 759 754 751 746 742 739 736 732 728 726 725 725 723 722 717 714 713 713 715 713 710 708 706 703 700 699 697 693 694 697 703 710 714
784 780 776 774 773 772 769 764 761 758 755 750 747 742 737 732 730 726 721 718 716 715 715 714 711 707 707 707 707 705 704 700 699 696 694 698 697 694 694 695 699 705 710
778 775 773 772 769 767 765 761 756 752 748 746 742 737 733 727 723 720 715 711 708 706 707 705 704 702 701 700 699 699 696 696 695 694 694 698 701 700 701 703 709 719 711
774 772 771 769 767 765 763 759 754 749 742 740 735 731 727 722 717 713 709 705 701 699 699 698 698 697 695 693 692 692 690 689 691 695 697 701 703 701 715 720 722 728 728